SCP
0 0 0 0 0 0 0 0 0 0 0 0 0 0 0 0 0 0 0 0 0 0 0 0 0 0 0 0 0 0 0 0 0 0 0 0 0 0
0 0 0 0 0 0 0 0 0 0 0 0 0 0 0 0 0 0 0 0 0 0 0 0 0 0 0 0 0 0 0 0 0 0 0 0 0 0
0 0 0 0 0 0 0 0 0 0 0 0 0 0 0 0 0 0 0 0 0 0 0 0 0 0 0 0 0 0 0 0 0 0 0 0 0 0
0 0 0 0 0 0 0 0 0 0 0 0 0 0 0 0 0 0 0 0 0 0 0 0 0 0 0 0 0 0 0 0 0 0 0 0 0 0
0 0 0 0 0 0 0 0 0 0 0 0 0 0 0 0 0 0 0 0 0 0 0 0 0 0 0 0 0 0 0 0 0 0 0 0 0 0
0 0 0 0 0 0 0 0 0 0 0 0 0 0 0 0 0 0 0 0 0 0 0 0 0 0 0 0 0 0 0 0 0 0 0 0 0 0
0 0 0 0 0 0 0 0 0 0 0 0 0 0 0 0 0 0 0 0 0 0 0 0 0 0 0 0 0 0 0 0 0 0 0 0 0 0
0 0 0 0 0 0 0 0 0 0 0 0 0 0 0 0 0 0 0 0 0 0 0 0 0 0 0 0 0 0 0 0 0 0 0 0 0 0
0 0 0 0 0 0 0 0 0 0 0 0 0 0 0 0 0 0 0 0 0 0 0 0 0 0 0 0 0 0 0 0 0 0 0 0 0 0
0 0 0 0 0 0 0 0 0 0 0 0 0 0 0 0 0 0 0 0 0 0 0 0 0 0 0 0 0 0 0 0 0 0 0 0 0 0
0 0 0 0 0 0 0 0 0 0 0 0 0 0 0 0 0 0 0 0 0 0 0 0 0 0 0 0 0 0 0 0 0 0 0 0 0 0
0 0 0 0 0 0 0 0 0 0 0 0 0 0 0 0 0 0 0 0 0 0 0 0 0 0 0 0 0 0 0 0 0 0 0 0 0 0
0 0 0 0 0 0 0 0 0 0 0 0 0 0 0 0 0 0 0 0 0 0 0 0 0 0 0 0 0 0 0 0 0 0 0 0 0 0
0 0 0 0 0 0 0 0 0 0 0 0 0 0 0 0 0 0 0 0 0 0 0 0 0 0 0 0 0 0 0 0 0 0 0 0 0 0
0 0 0 0 0 0 0 0 0 0 0 0 0 0 0 0 0 0 0 0 0 0 0 0 0 0 0 0 0 0 0 0 0 0 0 0 0 0
0 0 0 0 0 0 0 0 0 0 0 0 0 0 0 0 0 0 0 0 0 0 0 0 0 0 0 0 0 0 0 0 0 0 0 0 0 0
0 0 0 0 0 0 0 0 0 0 0 0 0 0 0 0 0 0 0 0 0 0 0 0 0 0 0 0 0 0 0 0 0 0 0 0 0 0
0 0 0 0 0 0 0 0 0 0 0 0 0 0 0 0 0 0 0 0 0 0 0 0 0 0 0 0 0 0 0 0 0 0 0 0 0 0
0 0 0 0 0 0 0 0 0 0 0 0 0 0 0 0 0 0 0 0 0 0 0 0 0 0 0 0 0 0 0 0 0 0 0 0 0 0
0 0 0 0 0 0 0 0 0 0 0 0 0 0 0 0 0 0 0 0 0 0 0 0 0 0 0 0 0 0 0 0 0 0 0 0 0 0
0 0 0 0 0 0 0 0 0 0 0 0 0 0 0 0 0 0 0 0 0 0 0 0 0 0 0 0 0 0 0 0 0 0 0 0 0 0
0 0 0 0 0 0 0 0 0 0 0 0 0 0 0 0 0 0 0 0 0 0 0 0 0 0 0 0 0 0 0 0 0 0 0 0 0 0
0 0 0 0 0 0 0 0 0 0 0 0 0 0 0 0 0 0 0 0 0 0 0 0 0 0 0 0 0 0 0 0 0 0 0 0 0 0
Wind_Speed
5 5 4 4 4 4 4 4 5 6 5 5 4 4 5 6 7 7 8 9 11 11 12 12 11 10 11 11 11 12 12 12 11 12 13 14 15 17
4 4 4 4 3 3 3 4 4 5 6 5 6 8 8 7 8 8 8 11 10 11 11 12 11 11 11 11 11 12 12 12 12 13 14 15 15 16
4 4 5 5 4 3 3 4 4 4 7 7 6 8 10 10 9 8 8 8 7 10 11 12 12 11 11 11 11 12 12 13 13 14 15 15 15 15
4 4 5 4 5 4 4 5 5 5 6 9 8 7 10 10 10 10 8 7 8 10 12 13 13 12 12 12 11 11 12 12 13 14 15 15 15 15
4 5 5 6 6 5 5 5 5 6 6 7 8 7 7 8 9 9 9 8 8 9 11 12 12 12 13 13 13 11 11 12 13 13 14 14 15 15
4 5 5 6 6 7 6 6 6 7 7 7 7 7 7 8 8 8 8 8 8 8 9 10 11 13 14 13 13 11 11 12 13 14 14 14 14 15
4 4 5 6 7 7 6 7 7 6 6 6 7 7 7 7 7 7 9 9 9 6 7 8 8 7 8 10 10 11 12 12 13 14 14 15 14 15
5 5 5 5 6 8 9 9 9 8 8 7 7 8 9 8 8 8 8 9 8 6 9 10 8 8 7 7 9 11 12 13 13 13 13 14 14 14
5 5 4 5 7 6 7 9 8 9 10 9 9 9 10 9 10 10 9 10 10 9 9 10 8 9 7 8 12 12 13 13 12 13 13 13 14 15
5 5 6 6 6 7 7 8 8 7 8 7 8 9 9 9 9 10 11 11 11 8 8 9 8 8 9 8 11 12 13 13 13 14 14 13 13 13
5 5 6 7 8 10 8 8 9 7 7 9 11 11 13 13 11 8 8 8 9 7 5 7 7 9 9 8 7 10 12 13 14 14 13 13 13 13
5 5 6 7 9 10 8 8 9 9 9 9 9 9 9 9 10 8 7 7 8 7 4 5 7 7 8 6 6 7 8 11 13 13 14 13 13 9
5 4 4 8 10 11 10 7 9 10 9 8 8 7 7 6 6 6 6 6 8 8 6 6 7 7 7 8 8 8 7 7 7 8 10 12 13 11
5 5 5 9 11 11 8 8 11 10 6 6 6 6 6 6 7 7 8 8 9 11 11 9 8 8 9 10 9 8 7 7 7 7 7 10 11 13
5 8 10 11 10 8 8 10 9 6 5 6 6 6 6 7 8 7 8 8 10 10 9 10 10 9 9 10 10 9 9 8 7 7 7 7 7 7
6 7 9 9 8 8 8 6 5 5 5 6 6 7 7 7 7 7 7 7 8 8 7 8 9 10 10 11 10 11 9 8 6 7 7 7 7 7
5 5 5 5 5 5 5 5 4 5 5 5 6 7 7 7 7 7 7 7 7 9 9 7 7 8 10 10 10 10 9 9 8 7 7 8 7 7
7 5 5 5 5 5 5 5 5 5 5 6 6 7 7 7 8 7 7 7 8 8 8 8 7 7 7 7 10 10 9 8 8 8 7 8 9 7
6 5 5 5 5 5 5 6 6 6 6 6 6 7 7 7 7 8 8 8 8 8 8 7 7 6 8 9 6 6 7 8 8 8 7 8 9 8
5 5 5 5 5 6 6 6 6 6 6 6 7 7 7 7 8 8 8 9 9 9 8 7 6 6 7 9 9 8 9 9 8 9 8 7 8 9
5 5 5 5 6 6 6 6 7 7 7 7 7 8 7 7 8 8 8 11 10 8 9 8 7 10 8 7 8 8 7 8 10 9 8 7 7 6
5 5 5 6 6 6 6 7 7 7 8 7 7 7 7 7 8 10 9 9 8 8 10 9 8 8 7 8 10 11 10 9 9 12 13 11 6 5
5 5 6 6 6 6 6 7 9 8 7 7 8 7 8 8 8 8 9 9 9 9 9 9 8 7 8 8 9 9 11 10 7 7 6 7 10 12
Wind_Direction
318 318 313 311 308 304 301 300 297 297 294 296 307 319 323 316 317 309 306 313 307 300 299 297 286 280 277 271 267 268 269 264 261 255 250 245 243 241
319 318 313 309 307 308 305 307 299 289 285 305 315 321 321 313 313 305 302 306 299 296 296 295 290 281 277 271 265 264 264 263 262 260 256 250 244 244
324 321 318 317 314 314 312 306 298 291 285 295 305 313 318 321 319 311 304 297 292 295 295 294 288 286 280 272 268 264 261 259 259 260 259 256 250 245
323 324 322 320 314 311 310 306 301 298 291 295 302 310 314 319 319 317 314 306 298 299 296 294 288 282 279 273 270 268 264 260 257 257 255 255 252 247
316 316 317 315 312 314 311 308 306 303 297 294 298 305 306 315 316 316 317 314 308 302 296 291 289 286 281 277 272 269 268 265 258 254 253 252 251 248
311 310 312 312 312 314 310 310 309 305 302 298 298 303 307 314 314 318 317 318 314 312 308 302 295 288 282 279 272 267 267 266 262 258 253 251 249 246
303 303 305 308 309 309 309 311 309 303 302 299 298 302 308 316 319 319 313 313 308 312 314 309 306 296 288 279 273 263 262 266 265 262 258 252 249 245
298 302 303 296 300 300 301 304 304 301 301 298 297 299 304 309 312 311 311 311 308 321 314 304 301 294 292 287 289 287 272 266 268 266 262 258 253 248
298 303 303 304 303 301 302 300 297 296 294 294 293 296 302 307 307 304 303 301 295 303 304 294 296 292 294 292 293 289 284 275 272 272 266 260 257 252
293 295 299 303 306 310 305 301 298 297 298 294 293 297 300 303 300 297 296 295 290 288 292 288 299 300 306 299 293 289 287 283 279 274 270 264 259 258
288 291 296 298 307 310 305 303 303 304 303 300 299 298 299 301 303 299 298 297 297 298 302 291 300 306 300 294 296 299 295 288 284 279 275 270 265 263
285 285 287 296 308 312 307 305 304 309 312 309 303 300 300 300 301 293 293 293 294 296 308 305 304 313 304 294 302 306 301 292 288 283 279 273 266 260
289 292 295 305 306 309 306 301 304 308 305 303 303 303 304 305 306 302 295 285 283 279 294 304 294 295 286 295 301 298 295 295 292 284 280 276 266 255
286 292 296 302 303 305 304 305 307 306 299 299 300 303 308 310 309 305 297 288 278 278 284 285 279 284 287 287 289 295 297 295 290 283 281 281 271 257
282 288 293 299 302 299 298 303 303 298 298 297 299 303 305 304 303 300 295 288 282 277 277 275 272 275 273 275 281 287 294 291 280 278 279 279 275 264
277 283 286 288 289 291 295 295 291 294 298 296 299 301 302 302 301 304 302 303 296 290 279 274 272 273 272 272 273 278 280 279 282 284 284 278 273 266
285 280 277 282 285 288 290 292 294 294 294 295 298 300 301 303 303 305 301 299 292 295 300 295 281 273 269 270 272 272 274 274 274 280 283 280 270 264
279 273 276 279 283 289 294 296 297 297 297 297 295 296 298 300 301 301 298 295 294 294 296 300 302 298 284 260 243 264 272 277 279 277 274 276 275 267
267 268 273 277 281 283 287 289 291 294 295 292 291 293 295 295 295 296 297 296 294 294 295 297 297 294 295 296 276 238 271 286 286 280 272 269 271 272
259 265 270 275 278 281 284 286 289 291 290 289 290 290 290 291 292 293 293 294 295 296 295 292 288 286 285 291 293 285 269 271 278 280 281 278 273 271
261 263 268 272 276 278 281 283 285 286 287 288 287 287 287 288 288 289 290 291 291 290 292 292 290 291 285 282 278 278 279 262 261 269 277 278 278 271
262 265 269 272 274 276 279 281 283 283 285 284 285 286 286 285 285 287 287 288 288 287 289 290 292 290 281 277 282 288 293 293 278 268 260 248 257 262
261 265 269 272 272 274 275 277 279 281 282 283 284 284 284 284 284 284 284 284 285 287 289 290 291 287 282 279 282 285 291 296 296 294 282 262 251 256